TimeCDT,TemperatureF,Dew PointF,Humidity,Sea Level PressureIn,VisibilityMPH,Wind Direction,Wind SpeedMPH,Gust SpeedMPH,PrecipitationIn,Events,Conditions,WindDirDegrees,DateUTC
12:53 AM,41.0,36.0,82,30.27,10.0,NNW,5.8,-,N/A,,Clear,330,2012-10-06 05:53:00
1:53 AM,39.0,36.0,89,30.29,10.0,North,5.8,-,N/A,,Clear,350,2012-10-06 06:53:00
2:53 AM,39.0,36.0,89,30.28,10.0,NNW,8.1,-,N/A,,Clear,340,2012-10-06 07:53:00
3:53 AM,41.0,37.0,86,30.27,10.0,North,9.2,-,N/A,,Clear,10,2012-10-06 08:53:00
4:53 AM,42.1,37.0,82,30.28,10.0,North,5.8,-,N/A,,Overcast,10,2012-10-06 09:53:00
5:53 AM,42.1,37.0,82,30.27,10.0,NE,3.5,-,N/A,,Mostly Cloudy,40,2012-10-06 10:53:00
6:53 AM,44.1,36.0,73,30.27,10.0,NE,5.8,-,N/A,,Partly Cloudy,40,2012-10-06 11:53:00
7:53 AM,44.1,36.0,73,30.27,10.0,ENE,3.5,-,N/A,,Overcast,60,2012-10-06 12:53:00
8:53 AM,44.6,37.4,76,30.32,10.0,NNW,8.1,-,N/A,Rain,Light Rain,330,2012-10-06 13:53:00
9:53 AM,44.1,39.9,85,30.33,10.0,North,8.1,-,0.02,Rain,Light Rain,350,2012-10-06 14:53:00
10:53 AM,46.0,39.9,79,30.34,10.0,NNE,9.2,-,0.00,,Overcast,20,2012-10-06 15:53:00
11:53 AM,46.9,39.0,74,30.35,10.0,North,8.1,-,N/A,,Overcast,360,2012-10-06 16:53:00
12:53 PM,48.0,37.9,68,30.34,10.0,North,12.7,-,0.00,Rain,Light Rain,350,2012-10-06 17:53:00
1:53 PM,46.9,37.9,71,30.32,10.0,NNE,8.1,-,0.00,,Overcast,30,2012-10-06 18:53:00
2:53 PM,48.9,39.0,69,30.28,10.0,Variable,3.5,-,N/A,,Overcast,0,2012-10-06 19:53:00
3:53 PM,48.9,35.1,59,30.28,10.0,North,16.1,21.9,N/A,,Overcast,10,2012-10-06 20:53:00
4:53 PM,46.9,36.0,66,30.28,10.0,North,9.2,18.4,0.00,Rain,Light Rain,360,2012-10-06 21:53:00
5:53 PM,48.2,33.8,58,30.28,10.0,North,9.2,-,N/A,,Overcast,10,2012-10-06 22:53:00
6:53 PM,48.0,33.1,56,30.30,10.0,North,9.2,-,N/A,,Overcast,10,2012-10-06 23:53:00
7:53 PM,46.9,30.9,54,30.32,10.0,North,5.8,-,N/A,,Overcast,10,2012-10-07 00:53:00
8:53 PM,46.0,32.0,58,30.33,10.0,North,8.1,-,N/A,,Overcast,350,2012-10-07 01:53:00
9:53 PM,41.0,32.0,70,30.34,10.0,NNW,4.6,-,N/A,,Clear,340,2012-10-07 02:53:00
10:53 PM,42.1,35.1,76,30.34,10.0,NW,3.5,-,N/A,,Overcast,320,2012-10-07 03:53:00
11:53 PM,39.9,34.0,79,30.34,10.0,NW,3.5,-,N/A,,Partly Cloudy,320,2012-10-07 04:53:00